| time (UTC) | temp F | wind direction | speed MPH | gust MPH | rain 1hr in | rain 24hr in | rain mn in | humidity % | barometer mb |
| 20260504050017 | 54 | 0.0 | 3.0 | 0.00 | 0.00 | 0.00 | 68 | 1011.2 | |
| 20260504045017 | 54 | 0.0 | 2.0 | 0.00 | 0.00 | 0.00 | 68 | 1011.4 | |
| 20260504044017 | 54 | 225 | 1.0 | 6.0 | 0.00 | 0.00 | 0.00 | 68 | 1011.5 |
| 20260504043017 | 54 | 0.0 | 4.0 | 0.00 | 0.00 | 0.00 | 68 | 1011.4 | |
| 20260504042017 | 54 | 0.0 | 2.0 | 0.00 | 0.00 | 0.00 | 69 | 1011.4 | |
| 20260504041017 | 53 | 0.0 | 3.0 | 0.00 | 0.00 | 0.00 | 69 | 1011.5 | |
| 20260504040017 | 53 | 0.0 | 4.0 | 0.00 | 0.00 | 0.00 | 71 | 1011.6 | |
| 20260504035017 | 54 | 0.0 | 0.0 | 0.00 | 0.00 | 0.00 | 69 | 1011.6 | |
| 20260504034017 | 54 | 0.0 | 5.0 | 0.00 | 0.00 | 0.00 | 69 | 1011.9 | |
| 20260504033016 | 54 | 0.0 | 0.0 | 0.00 | 0.00 | 0.00 | 68 | 1012.0 | |
| 20260504031037 | 55 | 0.0 | 0.0 | 0.00 | 0.00 | 0.00 | 66 | 1012.2 | |
| 20260504030037 | 55 | 0.0 | 0.0 | 0.00 | 0.00 | 0.00 | 66 | 1012.3 | |
| 20260504025017 | 55 | 0.0 | 3.0 | 0.00 | 0.00 | 0.00 | 66 | 1012.2 | |
| 20260504024017 | 55 | 0.0 | 0.0 | 0.00 | 0.00 | 0.00 | 66 | 1012.1 | |
| 20260504023017 | 55 | 0.0 | 2.0 | 0.00 | 0.00 | 0.00 | 65 | 1012.1 | |
| 20260504022017 | 55 | 0.0 | 1.0 | 0.00 | 0.00 | 0.00 | 65 | 1011.9 | |
| 20260504021017 | 55 | 0.0 | 3.0 | 0.00 | 0.00 | 0.00 | 64 | 1011.8 | |
| 20260504020017 | 56 | 0.0 | 3.0 | 0.00 | 0.00 | 0.00 | 63 | 1011.8 | |
| 20260504015018 | 56 | 0.0 | 4.0 | 0.00 | 0.00 | 0.00 | 62 | 1011.7 | |
| 20260504014017 | 57 | 0.0 | 5.0 | 0.00 | 0.00 | 0.00 | 61 | 1011.7 | |
| 20260504013017 | 57 | 248 | 2.0 | 7.0 | 0.00 | 0.00 | 0.00 | 59 | 1011.7 |
| 20260504012017 | 57 | 203 | 1.0 | 7.0 | 0.00 | 0.00 | 0.00 | 61 | 1011.5 |
| 20260504011038 | 57 | 225 | 1.0 | 6.0 | 0.00 | 0.00 | 0.00 | 60 | 1011.6 |
| 20260504010017 | 57 | 248 | 2.0 | 7.0 | 0.00 | 0.00 | 0.00 | 59 | 1011.6 |
| 20260504005017 | 57 | 248 | 2.0 | 6.0 | 0.00 | 0.00 | 0.00 | 60 | 1011.5 |
| 20260504004017 | 58 | 225 | 3.0 | 10.0 | 0.00 | 0.00 | 0.00 | 60 | 1011.5 |
| 20260504003017 | 58 | 225 | 1.0 | 6.0 | 0.00 | 0.00 | 0.00 | 60 | 1011.4 |
| 20260504002038 | 57 | 225 | 3.0 | 8.0 | 0.00 | 0.00 | 0.00 | 60 | 1011.4 |
| 20260504001017 | 57 | 0.0 | 6.0 | 0.00 | 0.00 | 0.00 | 63 | 1011.5 | |
| 20260504000017 | 57 | 203 | 1.0 | 9.0 | 0.00 | 0.00 | 0.00 | 64 | 1011.4 |
| 20260503235017 | 57 | 293 | 2.0 | 14.0 | 0.00 | 0.00 | 0.00 | 63 | 1011.2 |
| 20260503234017 | 57 | 225 | 2.0 | 7.0 | 0.00 | 0.00 | 0.00 | 65 | 1011.4 |
| 20260503233017 | 57 | 225 | 1.0 | 7.0 | 0.00 | 0.00 | 0.00 | 65 | 1011.6 |
| 20260503232037 | 57 | 225 | 2.0 | 7.0 | 0.00 | 0.00 | 0.00 | 63 | 1012.0 |
| 20260503231037 | 57 | 225 | 1.0 | 6.0 | 0.00 | 0.00 | 0.00 | 63 | 1012.0 |
| 20260503230017 | 57 | 225 | 2.0 | 8.0 | 0.00 | 0.00 | 0.00 | 62 | 1011.6 |
| 20260503225017 | 58 | 225 | 3.0 | 11.0 | 0.00 | 0.00 | 0.00 | 60 | 1011.3 |
| 20260503224017 | 58 | 225 | 2.0 | 8.0 | 0.00 | 0.00 | 0.00 | 60 | 1011.8 |
| 20260503223018 | 58 | 203 | 2.0 | 10.0 | 0.00 | 0.00 | 0.00 | 59 | 1012.2 |
| 20260503222017 | 58 | 225 | 1.0 | 7.0 | 0.00 | 0.00 | 0.00 | 60 | 1012.4 |
| 20260503221018 | 59 | 225 | 2.0 | 9.0 | 0.00 | 0.00 | 0.00 | 59 | 1012.5 |
| 20260503220017 | 59 | 203 | 4.0 | 11.0 | 0.00 | 0.00 | 0.00 | 54 | 1012.2 |
| 20260503215015 | 59 | 225 | 2.0 | 10.0 | 0.00 | 0.00 | 0.00 | 55 | 1012.6 |
| 20260503214017 | 60 | 203 | 3.0 | 8.0 | 0.00 | 0.00 | 0.00 | 54 | 1013.0 |
| 20260503213017 | 60 | 248 | 4.0 | 11.0 | 0.00 | 0.00 | 0.00 | 50 | 1012.9 |
| 20260503212017 | 61 | 225 | 4.0 | 10.0 | 0.00 | 0.00 | 0.00 | 50 | 1012.6 |
| 20260503211017 | 61 | 203 | 5.0 | 14.0 | 0.00 | 0.00 | 0.00 | 50 | 1013.3 |
| 20260503210017 | 61 | 248 | 2.0 | 11.0 | 0.00 | 0.00 | 0.00 | 52 | 1013.3 |
| 20260503205017 | 61 | 203 | 4.0 | 13.0 | 0.00 | 0.00 | 0.00 | 51 | 1013.7 |
| 20260503204017 | 61 | 203 | 4.0 | 12.0 | 0.00 | 0.00 | 0.00 | 50 | 1014.3 |
| 20260503203017 | 61 | 225 | 3.0 | 12.0 | 0.00 | 0.00 | 0.00 | 49 | 1014.5 |
| 20260503202017 | 61 | 293 | 4.0 | 11.0 | 0.00 | 0.00 | 0.00 | 49 | 1014.9 |
| 20260503201017 | 62 | 270 | 3.0 | 10.0 | 0.00 | 0.00 | 0.00 | 49 | 1015.3 |
| 20260503200017 | 63 | 203 | 4.0 | 11.0 | 0.00 | 0.00 | 0.00 | 48 | 1015.2 |
| 20260503195037 | 62 | 225 | 1.0 | 7.0 | 0.00 | 0.00 | 0.00 | 46 | 1015.3 |
| 20260503194017 | 62 | 270 | 3.0 | 12.0 | 0.00 | 0.00 | 0.00 | 47 | 1015.6 |
| 20260503193018 | 61 | 203 | 2.0 | 7.0 | 0.00 | 0.00 | 0.00 | 47 | 1015.9 |
| 20260503192017 | 62 | 203 | 6.0 | 15.0 | 0.00 | 0.00 | 0.00 | 47 | 1016.1 |
| 20260503191037 | 61 | 203 | 5.0 | 13.0 | 0.00 | 0.00 | 0.00 | 45 | 1015.6 |
| 20260503190017 | 62 | 270 | 4.0 | 14.0 | 0.00 | 0.00 | 0.00 | 48 | 1015.8 |
| 20260503185017 | 61 | 248 | 4.0 | 13.0 | 0.00 | 0.00 | 0.00 | 50 | 1016.0 |
| 20260503184018 | 61 | 293 | 2.0 | 7.0 | 0.00 | 0.00 | 0.00 | 50 | 1016.0 |
| 20260503183017 | 61 | 225 | 4.0 | 14.0 | 0.00 | 0.00 | 0.00 | 45 | 1016.3 |
| 20260503182017 | 62 | 248 | 4.0 | 12.0 | 0.00 | 0.00 | 0.00 | 48 | 1016.6 |
| 20260503181037 | 61 | 203 | 3.0 | 11.0 | 0.00 | 0.00 | 0.00 | 46 | 1016.7 |
| 20260503180037 | 61 | 225 | 4.0 | 14.0 | 0.00 | 0.00 | 0.00 | 49 | 1017.2 |
| 20260503175017 | 60 | 248 | 4.0 | 11.0 | 0.00 | 0.00 | 0.00 | 46 | 1017.4 |
| 20260503174017 | 60 | 225 | 5.0 | 13.0 | 0.00 | 0.00 | 0.00 | 44 | 1017.5 |
| 20260503173017 | 59 | 225 | 5.0 | 14.0 | 0.00 | 0.00 | 0.00 | 48 | 1017.7 |
| 20260503172017 | 59 | 225 | 3.0 | 12.0 | 0.00 | 0.00 | 0.00 | 51 | 1017.9 |
| 20260503171017 | 59 | 225 | 2.0 | 11.0 | 0.00 | 0.00 | 0.00 | 49 | 1017.8 |
| 20260503131037 | 45 | 248 | 2.0 | 6.0 | 0.00 | 0.00 | 0.00 | 65 | 1019.6 |
| 20260503081017 | 40 | 0.0 | 2.0 | 0.00 | 0.00 | 0.00 | 71 | 1018.9 | |
| 20260503072017 | 40 | 0.0 | 1.0 | 0.00 | 0.00 | 0.00 | 71 | 1018.8 | |
| 20260503071017 | 40 | 0.0 | 0.0 | 0.00 | 0.00 | 0.00 | 71 | 1018.8 |